Home  > Rebate Center > Cooking > Range Hoods >  Approved for Outdoor Use: No

Rebate Center: Not Approved for Outdoor Use Range Hoods

Sort:

  • Mail In Rebates
  • Instant Savings
  • Free Delivery
  • Product Reviews
  • Top Ratings
  • Quick Ship

Displaying 61 - 80 of 263 Products 20 40 50 products per page  

1

2

3

4

5

6

7

BlueStar Manhattan Series BSMNHTTNISS

Island Hood with 3-Speed Blower Options, 750 Color Options, Hidden Controls, Dishwasher Safe Baffle Filters, Halogen Lamps and Top Discharge

BSMANHI24SS 24" Width 01/01/2016 - 12/31/2016 Save $500 Download
BSMANHI30SS 30" Width 01/01/2016 - 12/31/2016 Save $500 Download
BSMANHI36SS 36" Width 01/01/2016 - 12/31/2016 Save $500 Download
BSMANHI42SS 42" Width 01/01/2016 - 12/31/2016 Save $500 Download
BSMANHI48SS 48" Width 01/01/2016 - 12/31/2016 Save $500 Download
BSMANHI54SS 54" Width 01/01/2016 - 12/31/2016 Save $500 Download
BSMANHI60SS 60" Width 01/01/2016 - 12/31/2016 Save $500 Download
BSMANHI66SS 66" Width 01/01/2016 - 12/31/2016 Save $500 Download
BlueStar Insert Liner Series BSPROLINERSS

Stainless Steel Insert Liner with 3-Speed Blower Options, Commercial Stainless Steel Baffle Filters, EZ Install Trim Kit, High Heat Sensor and Variable Light Control

BSPMLSS28SS3 28" Width with 300 CFM Blower 01/01/2016 - 12/31/2016 Save $500 Download
BSPMLSS34SS 34" Width 01/01/2016 - 12/31/2016 Save $500 Download
BSPMLSS40SS 40" Width 01/01/2016 - 12/31/2016 Save $500 Download
BSPMLSS28SS6 28" Width with 600 CFM Blower 01/01/2016 - 12/31/2016 Save $500 Download
BSPMLSS46SS 46" Width 01/01/2016 - 12/31/2016 Save $500 Download
BSPMLSS52SS 52" Width 01/01/2016 - 12/31/2016 Save $500 Download
BSPMLSS58SS 58" Width 01/01/2016 - 12/31/2016 Save $500 Download
BSPMLSS64SS 64" Width 01/01/2016 - 12/31/2016 Save $500 Download
BSPMLSS70SS 70" Width 01/01/2016 - 12/31/2016 Save $500 Download
Prizer Hoods Wrangler Series WRAN

Wall Mount Chimney Range Hood with Optional Blowers, 3-Speed Fan Control, High-Heat Sensor, Halogen Lights, Handcrafted 16 Gauge Material and Baffle Filters

WRAN30SS 30" Width, Brushed Stainless Steel 01/01/2016 - 12/31/2016 Save $500 Download
WRAN36SS 36" Width, Brushed Stainless Steel 01/01/2016 - 12/31/2016 Save $500 Download
WRAN42SS 42" Width, Brushed Stainless Steel 01/01/2016 - 12/31/2016 Save $500 Download
WRAN48SS 48" Width, Brushed Stainless Steel 01/01/2016 - 12/31/2016 Save $500 Download
WRAN54SS 54" Width, Brushed Stainless Steel 01/01/2016 - 12/31/2016 Save $500 Download
WRAN60SS 60" Width, Brushed Stainless Steel 01/01/2016 - 12/31/2016 Save $500 Download
WRAN66SS 66" Width, Brushed Stainless Steel 01/01/2016 - 12/31/2016 Save $500 Download
BlueStar Manhattan Series BSMNHTTNIBB

Brushed Brass Island Hood with 3-Speed Blower Options, Hidden Controls, Baffle Filters, Halogen Lamps and Top Discharge

BSMANHI24BB 24" Width 01/01/2016 - 12/31/2016 Save $500 Download
BSMANHI30BB 30" Width 01/01/2016 - 12/31/2016 Save $500 Download
BSMANHI36BB 36" Width 01/01/2016 - 12/31/2016 Save $500 Download
BSMANHI42BB 42" Width 01/01/2016 - 12/31/2016 Save $500 Download
BSMANHI48BB 48" Width 01/01/2016 - 12/31/2016 Save $500 Download
BSMANHI54BB 54" Width 01/01/2016 - 12/31/2016 Save $500 Download
BSMANHI60BB 60" Width 01/01/2016 - 12/31/2016 Save $500 Download
BSMANHI66BB 66" Width 01/01/2016 - 12/31/2016 Save $500 Download
BlueStar Insert Liner Series BSLINERSS

Stainless Steel Insert Liner with 3-Speed Blower Options, Commercial Stainless Steel Baffle Filters, EZ Install Trim Kit, High Heat Sensor and Variable Light Control

BSMLSS28SS3 28" Width with 300 CFM Blower 01/01/2016 - 12/31/2016 Save $500 Download
BSMLSS34SS 34" Width 01/01/2016 - 12/31/2016 Save $500 Download
BSMLSS40SS 40" Width 01/01/2016 - 12/31/2016 Save $500 Download
BSMLSS28SS6 28" Width with 600 CFM Blower 01/01/2016 - 12/31/2016 Save $500 Download
BSMLSS46SS 46" Width 01/01/2016 - 12/31/2016 Save $500 Download
BSMLSS52SS 52" Width 01/01/2016 - 12/31/2016 Save $500 Download
BSMLSS58SS 58" Width 01/01/2016 - 12/31/2016 Save $500 Download
BSMLSS64SS 64" Width 01/01/2016 - 12/31/2016 Save $500 Download
BSMLSS70SS 70" Width 01/01/2016 - 12/31/2016 Save $500 Download
Viking Professional 5 Series VWH3010M

30 Inch Under Cabinet Range Hood with 300 CFM Internal Blower, Variable Speed Fan, 2 Dimmable Halogen Lights, Dishwasher Safe Baffle Filters and Heat Sensing Technology

VWH3010MSS Stainless Steel 09/01/2016 - 12/31/2016 Instant Savings of up to $1,579 Download
VWH3010MAR Apple Red 09/01/2016 - 12/31/2016 Instant Savings of up to $1,579 Download
VWH3010MBK Black 09/01/2016 - 12/31/2016 Instant Savings of up to $1,579 Download
VWH3010MBU Burgundy 09/01/2016 - 12/31/2016 Instant Savings of up to $1,579 Download
VWH3010MCB Cobalt Blue 09/01/2016 - 12/31/2016 Instant Savings of up to $1,579 Download
VWH3010MGG Graphite Gray 09/01/2016 - 12/31/2016 Instant Savings of up to $1,579 Download
VWH3010MWH White 09/01/2016 - 12/31/2016 Instant Savings of up to $1,579 Download
Prizer Hoods Santa Fe Series SNFE

Wall Mount Canopy Range Hood with Optional Blowers, 3-Speed Fan Control, High-Heat Sensor, Halogen Lights, Handcrafted 16 Gauge Material and Baffle Filters

SNFE302418SS 30" Width, Brushed Stainless Steel 01/01/2016 - 12/31/2016 Save $500 Download
SNFE362418SS 36" Width, Brushed Stainless Steel 01/01/2016 - 12/31/2016 Save $500 Download
SNFE422418SS 42" Width, Brushed Stainless Steel 01/01/2016 - 12/31/2016 Save $500 Download
SNFE482418SS 48" Width, Brushed Stainless Steel 01/01/2016 - 12/31/2016 Save $500 Download
SNFE542418SS 54" Width, Brushed Stainless Steel 01/01/2016 - 12/31/2016 Save $500 Download
SNFE602418SS 60" Width, Brushed Stainless Steel 01/01/2016 - 12/31/2016 Save $500 Download
SNFE662418SS 66" Width, Brushed Stainless Steel 01/01/2016 - 12/31/2016 Save $500 Download
Viking Professional Series VWH53648

36 Inch Pro-Style Wall Mount Range Hood with Optional Blowers, Heat Sensor, Heat Lamps, LED Lights, Commercial-Type Baffle Filters, Backlit Knobs and 18 Inch Height

VWH53648SS Stainless Steel 09/01/2016 - 12/31/2016 Instant Savings of up to $1,579 Download
VWH53648AR Apple Red 09/01/2016 - 12/31/2016 Instant Savings of up to $1,579 Download
VWH53648BK Black 09/01/2016 - 12/31/2016 Instant Savings of up to $1,579 Download
VWH53648BU Burgundy 09/01/2016 - 12/31/2016 Instant Savings of up to $1,579 Download
VWH53648CB Cobalt Blue 09/01/2016 - 12/31/2016 Instant Savings of up to $1,579 Download
VWH53648GG Graphite Gray 09/01/2016 - 12/31/2016 Instant Savings of up to $1,579 Download
VWH53648WH White 09/01/2016 - 12/31/2016 Instant Savings of up to $1,579 Download
BlueStar Laramie Series BSLARAMIEBC

Brushed Copper Wall Mount Hood with 3-Speed Blower Options, Hidden Controls, Baffle Filters, Halogen Lamps and Reversible Top/Rear Exhaust

BSLARA30BC 30" Width 01/01/2016 - 12/31/2016 Save $500 Download
BSLARA36BC 36" Width 01/01/2016 - 12/31/2016 Save $500 Download
BSLARA42BC 42" Width 01/01/2016 - 12/31/2016 Save $500 Download
BSLARA48BC 48" Width 01/01/2016 - 12/31/2016 Save $500 Download
BSLARA54BC 54" Width 01/01/2016 - 12/31/2016 Save $500 Download
BSLARA60BC 60" Width 01/01/2016 - 12/31/2016 Save $500 Download
BSLARA66BC 66" Width 01/01/2016 - 12/31/2016 Save $500 Download
BlueStar Incline Series BSINCLINEBB

Brushed Brass Wall Mount Hood with 3-Speed Blower Options, Hidden Controls, Baffle Filters, Halogen Lamps and Reversible Top/Rear Exhaust

BSINCL30BB 30" Width 01/01/2016 - 12/31/2016 Save $500 Download
BSINCL36BB 36" Width 01/01/2016 - 12/31/2016 Save $500 Download
BSINCL42BB 42" Width 01/01/2016 - 12/31/2016 Save $500 Download
BSINCL48BB 48" Width 01/01/2016 - 12/31/2016 Save $500 Download
BSINCL54BB 54" Width 01/01/2016 - 12/31/2016 Save $500 Download
BSINCL60BB 60" Width 01/01/2016 - 12/31/2016 Save $500 Download
BSINCL66BB 66" Width 01/01/2016 - 12/31/2016 Save $500 Download
Prizer Hoods CFM600

600 CFM Internal Blower

CFM600   01/01/2016 - 12/31/2016 Save $500 Download
Prizer Hoods Pagoda Series PAGOI

Island Range Hood with Optional Blowers, 3-Speed Fan Control, High-Heat Sensor, Halogen Lights, Handcrafted 16 Gauge Material and Baffle Filters

PAGOI36SS 36" Width, Brushed Stainless Steel 01/01/2016 - 12/31/2016 Save $500 Download
PAGOI42SS 42" Width, Brushed Stainless Steel 01/01/2016 - 12/31/2016 Save $500 Download
PAGOI48SS 48" Width, Brushed Stainless Steel 01/01/2016 - 12/31/2016 Save $500 Download
PAGOI54SS 54" Width, Brushed Stainless Steel 01/01/2016 - 12/31/2016 Save $500 Download
PAGOI60SS 60" Width, Brushed Stainless Steel 01/01/2016 - 12/31/2016 Save $500 Download
Viking Professional 5 Series VBCV56038

60 Inch Wall Mount Custom Hood Insert with Optional Blowers, Variable Fan Speeds, Heat Sensor, Heat Lamps, LED Lighting, LED Knobs and Commercial-Type Filters

VBCV56038   09/01/2016 - 12/31/2016 Instant Savings of up to $1,579 Download
BlueStar Wrangler Series BSWRANGLERSS

Wall Mount Hood with 3-Speed Blower Options, 750 Color Options, Hidden Controls, Dishwasher Safe Baffle Filters, Halogen Lamps and Reversible Top/Rear Exhaust

BSWRAN30SS 30" Width 01/01/2016 - 12/31/2016 Save $500 Download
BSWRAN36SS 36" Width 01/01/2016 - 12/31/2016 Save $500 Download
BSWRAN42SS 42" Width 01/01/2016 - 12/31/2016 Save $500 Download
BSWRAN48SS 48" Width 01/01/2016 - 12/31/2016 Save $500 Download
BSWRAN54SS 54" Width 01/01/2016 - 12/31/2016 Save $500 Download
BSWRAN60SS 60" Width 01/01/2016 - 12/31/2016 Save $500 Download
BSWRAN66SS 66" Width 01/01/2016 - 12/31/2016 Save $500 Download
Monogram ZV750SP

36 Inch Wall Mount Chimney Range Hood with Internal Blower, 4-Speed Fan, Halogen Lamps, Electronic Push Button Controls and Convertible to Recirculation

ZV750SPSS 360 CFM 01/01/2016 - 12/31/2016 Save Up To $3,798 Download
Prizer Hoods Incline Series INCL

Wall Mount Canopy Range Hood with Optional Blowers, 3-Speed Fan Control, High-Heat Sensor, Halogen Lights, Handcrafted 16 Gauge Material and Baffle Filters

INCL30SS 30" Width, Brushed Stainless Steel 01/01/2016 - 12/31/2016 Save $500 Download
INCL36SS 36" Width, Brushed Stainless Steel 01/01/2016 - 12/31/2016 Save $500 Download
INCL42SS 42" Width, Brushed Stainless Steel 01/01/2016 - 12/31/2016 Save $500 Download
INCL48SS 48" Width, Brushed Stainless Steel 01/01/2016 - 12/31/2016 Save $500 Download
INCL54SS 54" Width, Brushed Stainless Steel 01/01/2016 - 12/31/2016 Save $500 Download
INCL60SS 60" Width, Brushed Stainless Steel 01/01/2016 - 12/31/2016 Save $500 Download
INCL66SS 66" Width, Brushed Stainless Steel 01/01/2016 - 12/31/2016 Save $500 Download
BlueStar Laramie Series BSLARAMIESS

Wall Mount Hood with 3-Speed Blower Options, 750 Color Options, Hidden Controls, Dishwasher Safe Baffle Filters, Halogen Lamps and Reversible Top/Rear Exhaust

BSLARA30SS 30" Width 01/01/2016 - 12/31/2016 Save $500 Download
BSLARA36SS 36" Width 01/01/2016 - 12/31/2016 Save $500 Download
BSLARA42SS 42" Width 01/01/2016 - 12/31/2016 Save $500 Download
BSLARA48SS 48" Width 01/01/2016 - 12/31/2016 Save $500 Download
BSLARA54SS 54" Width 01/01/2016 - 12/31/2016 Save $500 Download
BSLARA60SS 60" Width 01/01/2016 - 12/31/2016 Save $500 Download
BSLARA66SS 66" Width 01/01/2016 - 12/31/2016 Save $500 Download
Wolf PW2718

Wall Mount Canopy Range Hood with Infinite-Speed Blower Control, Automatic Heat Sentry, Heat Lamps, Baffle Filters and 27 Inch Depth

PW302718 30" Width 07/01/2016 - 03/31/2017 Receive a $1,000 Rebate or Free Wolf Gourmet Products Download
PW362718 36" Width 07/01/2016 - 03/31/2017 Receive a $1,000 Rebate or Free Wolf Gourmet Products Download
PW422718 42" Width 07/01/2016 - 03/31/2017 Receive a $1,000 Rebate or Free Wolf Gourmet Products Download
PW482718 48" Width 07/01/2016 - 03/31/2017 Receive a $1,000 Rebate or Free Wolf Gourmet Products Download
PW542718 54" Width 07/01/2016 - 03/31/2017 Receive a $1,000 Rebate or Free Wolf Gourmet Products Download
PW602718 60" Width 07/01/2016 - 03/31/2017 Receive a $1,000 Rebate or Free Wolf Gourmet Products Download
PW662718 66" Width 07/01/2016 - 03/31/2017 Receive a $1,000 Rebate or Free Wolf Gourmet Products Download
Prizer Hoods MLSS

Wall Mount Custom Hood Insert with Optional Blowers, 3-Speed Fan Control, High-Heat Sensor, Halogen Lights, Handcrafted 20 Gauge Material and Baffle Filters

MLSS28SS3 28" Width, 300 CFM Internal Blower 01/01/2016 - 12/31/2016 Save $500 Download
MLSS34SS 34" Width 01/01/2016 - 12/31/2016 Save $500 Download
MLSS40SS 40" Width 01/01/2016 - 12/31/2016 Save $500 Download
MLSS28SS6 28" Width, 600 CFM Internal Blower 01/01/2016 - 12/31/2016 Save $500 Download
MLSS46SS 46" Width 01/01/2016 - 12/31/2016 Save $500 Download
MLSS52SS 52" Width 01/01/2016 - 12/31/2016 Save $500 Download
MLSS58SS 58" Width 01/01/2016 - 12/31/2016 Save $500 Download
MLSS64SS 64" Width 01/01/2016 - 12/31/2016 Save $500 Download
MLSS70SS 70" Width 01/01/2016 - 12/31/2016 Save $500 Download
BlueStar Incline Series BSINCLINEBC

Brushed Copper Wall Mount Hood with 3-Speed Blower Options, Hidden Controls, Baffle Filters, Halogen Lamps and Reversible Top/Rear Exhaust

BSINCL30BC 30" Width 01/01/2016 - 12/31/2016 Save $500 Download
BSINCL36BC 36" Width 01/01/2016 - 12/31/2016 Save $500 Download
BSINCL42BC 42" Width 01/01/2016 - 12/31/2016 Save $500 Download
BSINCL48BC 48" Width 01/01/2016 - 12/31/2016 Save $500 Download
BSINCL54BC 54" Width 01/01/2016 - 12/31/2016 Save $500 Download
BSINCL60BC 60" Width 01/01/2016 - 12/31/2016 Save $500 Download
BSINCL66BC 66" Width 01/01/2016 - 12/31/2016 Save $500 Download

Sort:

Displaying 61 - 80 of 263 Products 20 40 50 products per page  

1

2

3

4

5

6

7

Expand Your Results

Remove Category:

Remove Approved for Outdoor Use:

Are you a builder
Quick LookQuick Look